Domov               UVHVVR             MKGP            O straneh              
ZDRAVSTVENO VARSTVO RASTLIN
  MREŽA AGROMET. POSTAJ
 ► PROGNOSTIČNA OBVESTILA
AGROMETEOROLOŠKI PODATKI -
ARSO
OBVLADOVANJE TVEGANJ ZARADI
NEUGODNIH VREMENSKIH RAZMER
  ► NARAVNE NESREČE
  ► SUŠA/MOČA
  ► NAMAKANJE
  ► ŽLED (gozdarstvo)
KARTOGRAFSKI PRIKAZI
SPLETNE POVEZAVE
PROJEKTI IN PUBLIKACIJE

AGROMETEOROLOŠKA MREŽA: VREMENSKE POSTAJE IN FENOLOŠKA OPAZOVANJA

Pregled podatkov za lokacijo Labor, meteorološka postaja 42414

Pregled senzorjev na lokaciji

ID Ime Zadnja
vrednost
Datum
zadnje
spremembe
Tip
senzorja
2099 Temperatura 2 m ( °C) 25,53 °C 27.6.2017 10:00 50YA
2100 Relativna vlaga 2 m (% RH) 49,72 % RH 27.6.2017 10:00 50YA
2101 Omočenost lista (U) 1 U 27.6.2017 10:00 A730WET
2102 Padavine 0.2 mm (mm) 0 mm 27.6.2017 10:00 Rain-O-Matic

Pregled podatkov zadnjih 24 ur

Zap.
št.
Datum in čas Labor
Omočenost
lista
Padavine
0.2
mm
Relativna
vlaga
2
m
Temperatura
2
m
0 27.6.2017 09:00 1 0 49,72 25,53
1 27.6.2017 08:30 0 0 44,89 25,85
2 27.6.2017 08:00 0 0 43,51 25,53
3 27.6.2017 07:30 1 0 47,32 23,88
4 27.6.2017 07:00 3 0 48,78 23,35
5 27.6.2017 06:30 0 0 42,83 24,38
6 27.6.2017 06:00 0 0 39,3 23,62
7 27.6.2017 05:30 0 0 36,44 23,05
8 27.6.2017 05:00 0 0 38,71 22,97
9 27.6.2017 04:30 0 0 37,33 23,21
10 27.6.2017 04:00 0 0 41,75 22,61
11 27.6.2017 03:30 0 0 41,08 22,99
12 27.6.2017 03:00 0 0 34,87 24,05
13 27.6.2017 02:30 0 0 39,1 23,65
14 27.6.2017 02:00 0 0 42,5 23,19
15 27.6.2017 01:30 0 0 44,89 22,89
16 27.6.2017 01:00 0 0 46,29 22,78
17 27.6.2017 00:30 0 0 48,65 22,47
18 27.6.2017 00:00 0 0 51,25 21,99
19 26.6.2017 23:30 0 0 53,91 21,5
20 26.6.2017 23:00 0 0 52,99 21,87
21 26.6.2017 22:30 0 0 47,09 22,71
22 26.6.2017 22:00 0 0 54,76 22,33
23 26.6.2017 21:30 0 0 47,73 23,18
24 26.6.2017 21:00 0 0 46,91 22,78
25 26.6.2017 20:30 0 0 47,37 22,76
26 26.6.2017 20:00 0 0 56,36 22,33
27 26.6.2017 19:30 0 0 51,79 24,13
28 26.6.2017 19:00 0 0 45,85 25,74
29 26.6.2017 18:30 0 0 43,33 26,49
30 26.6.2017 18:00 0 0 37,98 27,81
31 26.6.2017 17:30 0 0 35,96 28,22
32 26.6.2017 17:00 0 0 35,56 28,43
33 26.6.2017 16:30 0 0 35,09 28,39
34 26.6.2017 16:00 0 0 36,1 28,24
35 26.6.2017 15:30 0 0 36,04 28,28
36 26.6.2017 15:00 0 0 37,69 28,32
37 26.6.2017 14:30 0 0 40,08 28,11
38 26.6.2017 14:00 0 0 41,28 28,05
39 26.6.2017 13:30 0 0 39,49 28,95
40 26.6.2017 13:00 0 0 38,69 28,78
41 26.6.2017 12:30 0 0 39,2 28,47
42 26.6.2017 12:00 0 0 40,46 28,18
43 26.6.2017 11:30 0 0 35,07 29,02
44 26.6.2017 11:00 0 0 34,79 28,47
© 2011 Ministrstvo za kmetijstvo, gozdarstvo in prehrano. Vse pravice pridržane.